Kuchera_Ratio
0.0 0.0 0.0 0.0 0.0 0.0 0.0 0.0 0.0 0.0 0.0 0.0 0.0 0.0 0.0 0.0 0.0 0.0 0.0 0.0 0.0 0.0 0.0 0.0 0.0 0.0 0.0 0.0 0.0 0.0 0.0 0.0 0.0 0.0 0.0 0.0 0.0 0.0 0.0 0.0 0.0 0.0 0.0 0.0 0.0 0.0 0.0 0.0 0.0 0.0 0.0 0.0 0.0 0.0 0.0 0.0 0.0 0.0 0.0 0.0 0.0 0.0 0.0 0.0 0.0 0.0 0.0 0.0 0.0 0.0 0.0 0.0 0.0 0.0 0.0 0.0 0.0 0.0 0.0 0.0 0.0 0.0 0.0 0.0 0.0 0.0 0.0 0.0
0.0 0.0 0.0 0.0 0.0 0.0 0.0 0.0 0.0 0.0 0.0 0.0 0.0 0.0 0.0 0.0 0.0 0.0 0.0 0.0 0.0 0.0 0.0 0.0 0.0 0.0 0.0 0.0 0.0 0.0 0.0 0.0 0.0 0.0 0.0 0.0 0.0 0.0 0.0 0.0 0.0 0.0 0.0 0.0 0.0 0.0 0.0 0.0 0.0 0.0 0.0 0.0 0.0 0.0 0.0 0.0 0.0 0.0 0.0 0.0 0.0 0.0 0.0 0.0 0.0 0.0 0.0 0.0 0.0 0.0 0.0 0.0 0.0 0.0 0.0 0.0 0.0 0.0 0.0 0.0 0.0 0.0 0.0 0.0 0.0 0.0 0.0 0.0
0.0 0.0 0.0 0.0 0.0 0.0 0.0 0.0 0.0 0.0 0.0 0.0 0.0 0.0 0.0 0.0 0.0 0.0 0.0 0.0 0.0 0.0 0.0 0.0 0.0 0.0 0.0 0.0 0.0 0.0 0.0 0.0 0.0 0.0 0.0 0.0 0.0 0.0 0.0 0.0 0.0 0.0 0.0 0.0 0.0 0.0 0.0 0.0 0.0 0.0 0.0 0.0 0.0 0.0 0.0 0.0 0.0 0.0 0.0 0.0 0.0 0.0 0.0 0.0 0.0 0.0 0.0 0.0 0.0 0.0 0.0 0.0 0.0 0.0 0.0 0.0 0.0 0.0 0.0 0.0 0.0 0.0 0.0 0.0 0.0 0.0 0.0 0.0
0.0 0.0 0.0 0.0 0.0 0.0 0.0 0.0 0.0 0.0 0.0 0.0 0.0 0.0 0.0 0.0 0.0 0.0 0.0 0.0 0.0 0.0 0.0 0.0 0.0 0.0 0.0 0.0 0.0 0.0 0.0 0.0 0.0 0.0 0.0 0.0 0.0 0.0 0.0 0.0 0.0 0.0 0.0 0.0 0.0 0.0 0.0 0.0 0.0 0.0 0.0 0.0 0.0 0.0 0.0 0.0 0.0 0.0 0.0 0.0 0.0 0.0 0.0 0.0 0.0 0.0 0.0 0.0 0.0 0.0 0.0 0.0 0.0 0.0 0.0 0.0 0.0 0.0 0.0 0.0 0.0 0.0 0.0 0.0 0.0 0.0 0.0 0.0
0.0 0.0 0.0 0.0 0.0 0.0 0.0 0.0 0.0 0.0 0.0 0.0 0.0 0.0 0.0 0.0 0.0 0.0 0.0 0.0 0.0 0.0 0.0 0.0 0.0 0.0 0.0 0.0 0.0 0.0 0.0 0.0 0.0 0.0 0.0 0.0 0.0 0.0 0.0 0.0 0.0 0.0 0.0 0.0 0.0 0.0 0.0 0.0 0.0 0.0 0.0 0.2 0.0 0.0 0.0 0.0 0.0 0.0 0.0 0.0 0.0 0.0 0.0 0.0 0.0 0.0 0.0 0.0 0.0 0.0 0.0 0.0 0.0 0.0 0.0 0.0 0.0 0.0 0.0 0.0 0.0 0.0 0.0 0.0 0.0 0.0 0.0 0.0
0.0 0.0 0.0 0.0 0.0 0.0 0.0 0.0 0.0 0.0 0.0 0.0 0.0 0.0 0.0 0.0 0.0 0.0 0.0 0.0 0.0 0.0 0.0 0.0 0.0 0.0 0.0 0.0 0.0 0.0 0.0 2.1 0.0 0.0 0.0 0.0 0.0 0.0 0.0 0.0 0.0 0.0 0.0 0.0 0.0 0.0 0.0 0.0 0.0 0.0 0.0 0.0 0.0 0.0 0.0 0.0 0.0 0.0 0.0 0.0 0.0 0.0 0.0 0.0 0.0 0.0 0.0 0.0 0.0 0.0 0.0 0.0 0.0 0.0 0.0 0.0 0.0 0.0 0.0 0.0 0.0 0.0 0.0 0.0 0.0 0.0 0.0 0.0
0.0 0.0 0.0 0.0 0.0 0.0 0.0 0.0 0.0 0.0 0.0 0.0 0.0 0.0 0.0 0.0 0.0 0.0 0.0 0.0 0.0 0.0 0.0 0.0 0.0 0.0 0.0 0.0 0.0 0.0 0.0 0.0 0.0 0.0 0.0 0.0 0.0 0.0 0.0 0.0 0.0 0.0 0.0 0.0 0.0 0.0 0.0 0.0 0.0 0.0 0.0 0.0 0.0 0.0 0.0 0.0 0.0 0.0 0.0 0.0 0.0 0.0 0.0 0.0 0.0 0.0 0.0 0.0 0.0 0.0 0.0 0.0 0.0 0.0 0.0 0.0 0.0 0.0 0.0 0.0 0.0 0.0 0.0 0.0 0.0 0.0 0.0 0.0
0.0 0.0 0.0 0.0 0.0 0.0 0.0 0.0 0.0 0.0 0.0 0.0 0.0 0.0 0.0 0.0 0.0 0.0 0.0 0.0 0.0 0.0 0.0 0.0 0.0 0.0 0.0 0.0 0.0 0.0 0.0 0.0 0.0 0.0 0.0 0.0 0.0 0.0 0.0 0.0 0.0 0.0 0.0 0.0 0.0 0.0 0.0 0.0 0.0 0.0 0.0 0.7 0.5 0.0 0.0 0.0 0.0 0.0 0.0 0.0 0.0 0.0 0.0 0.0 0.0 0.0 0.0 0.0 0.0 0.0 0.0 0.0 0.0 0.0 0.0 0.0 0.0 0.0 0.0 0.0 0.0 0.0 0.0 0.0 0.0 0.0 0.0 0.0
0.0 0.0 0.0 0.0 0.0 0.0 0.0 0.0 0.0 0.0 0.0 0.0 0.0 0.0 0.0 0.0 0.0 0.0 0.0 0.0 0.0 0.0 0.0 0.0 0.0 0.0 0.0 0.0 0.0 0.0 0.0 0.0 0.0 0.0 0.0 0.0 0.0 0.0 0.0 0.0 0.0 0.0 0.0 0.0 0.0 0.0 0.0 0.0 0.0 0.0 2.9 0.2 0.0 0.0 0.0 0.0 1.5 0.0 0.0 0.0 0.0 0.0 0.0 0.0 0.0 0.0 0.0 0.0 0.0 0.0 0.0 0.0 0.0 0.0 0.0 0.0 0.0 0.0 0.0 0.0 0.0 0.0 0.0 0.0 0.0 0.0 0.0 0.0
0.0 0.0 0.0 0.0 0.0 0.0 0.0 0.0 0.0 0.0 0.0 0.0 0.0 0.0 0.0 0.0 0.0 0.0 0.0 0.0 0.0 0.0 0.0 0.0 0.0 0.0 0.0 0.0 0.0 1.5 0.0 0.0 0.0 0.0 0.0 0.0 0.0 0.0 0.0 0.0 0.0 0.0 0.0 0.0 0.0 0.0 0.0 0.0 0.0 0.0 0.0 0.0 0.0 0.0 0.0 0.0 1.0 0.0 0.0 0.0 0.0 0.0 0.0 0.0 0.0 0.0 0.0 0.0 0.0 0.0 0.0 0.0 0.0 0.0 0.0 0.0 0.0 0.0 0.0 0.0 0.0 0.0 0.0 0.0 0.0 0.0 0.0 0.0
0.0 0.0 0.0 0.0 0.0 0.0 0.0 0.0 0.0 0.0 0.0 0.0 0.0 0.0 0.0 0.0 0.0 0.0 0.0 0.0 0.0 0.0 0.0 0.0 0.0 0.0 0.0 0.0 0.0 2.9 0.0 0.0 0.0 0.0 0.0 0.0 0.0 0.0 0.0 0.0 0.0 0.0 0.0 0.0 0.0 0.0 0.0 0.0 0.0 0.0 0.0 0.0 0.0 0.0 0.0 0.0 0.0 0.0 0.0 0.0 0.0 0.0 0.0 0.0 0.0 0.0 0.0 0.0 0.0 0.0 0.0 0.0 0.0 0.0 0.0 0.0 0.0 0.0 0.0 0.0 0.0 0.0 0.0 0.0 0.0 0.0 0.0 0.0
0.0 0.0 0.0 0.0 0.0 0.0 0.0 0.0 0.0 0.0 0.0 0.0 0.0 0.0 0.0 0.0 0.0 0.0 0.0 0.0 0.0 0.0 0.0 0.0 0.0 0.0 0.0 0.0 0.0 0.0 0.0 0.0 0.0 0.0 0.0 0.0 0.0 0.0 0.0 0.0 0.0 0.0 0.0 0.0 0.0 0.0 0.0 0.0 0.0 0.0 3.3 0.0 4.0 0.0 0.0 0.0 0.0 0.0 0.0 0.0 0.3 0.0 0.0 0.0 0.0 0.0 0.0 0.0 0.0 0.0 0.0 0.0 0.0 0.0 0.0 0.0 0.0 0.0 0.0 0.0 0.0 0.0 0.0 0.0 0.0 0.0 0.0 0.0
0.0 0.0 0.0 0.0 0.0 0.0 0.0 0.0 0.0 0.0 0.0 0.0 0.0 0.0 0.0 0.0 0.0 0.0 0.0 0.0 0.0 0.0 0.0 0.0 0.0 0.0 0.0 0.0 0.0 0.0 0.0 0.0 0.0 0.0 0.0 0.0 0.0 0.0 0.0 0.0 0.0 0.0 0.0 0.0 0.0 0.0 0.0 0.0 0.0 0.0 0.0 0.0 0.0 2.1 0.0 0.0 0.0 0.0 0.0 1.6 1.0 1.1 0.8 0.0 0.0 0.0 0.0 0.0 0.0 0.0 3.8 0.0 0.0 0.0 0.0 0.0 0.0 0.0 0.0 0.0 0.0 0.0 0.0 0.0 0.0 0.0 0.0 0.0
0.0 0.0 0.0 0.0 0.0 0.0 0.0 0.0 0.0 0.0 0.0 0.0 0.0 0.0 0.0 0.0 0.0 0.0 0.0 0.0 0.0 0.0 0.0 0.0 0.0 0.0 0.0 0.0 0.0 0.0 0.0 0.0 0.0 0.0 0.0 0.0 0.0 0.0 0.0 0.0 0.0 0.0 0.0 0.0 0.0 0.0 0.0 0.0 0.0 0.0 0.0 0.0 1.8 0.0 0.0 0.0 0.0 4.2 3.7 0.3 9.8 7.3 6.5 0.0 0.0 0.0 0.0 0.0 0.0 0.0 2.7 0.0 0.0 0.0 0.0 0.0 0.0 0.0 0.0 0.0 0.0 0.0 0.0 0.0 0.0 0.0 0.0 0.0
0.0 0.0 0.0 0.0 0.0 0.0 0.0 0.0 0.0 0.0 0.0 0.0 0.0 0.0 0.0 0.0 0.0 0.0 0.0 0.0 0.0 0.0 0.0 0.0 0.0 0.0 0.0 0.0 0.0 0.0 0.0 0.0 0.0 0.0 0.0 0.0 0.0 0.0 0.0 0.0 0.0 0.0 0.0 0.0 0.0 0.0 0.0 0.0 0.0 0.0 0.0 0.0 0.0 0.0 6.9 9.8 9.8 6.8 6.8 12.5 12.1 9.2 5.0 1.3 0.0 0.0 0.0 0.0 0.0 0.0 3.5 0.0 0.0 0.0 0.0 0.0 0.0 0.0 0.0 0.0 0.0 0.0 0.0 0.0 0.0 0.0 0.0 0.0
0.0 0.0 0.0 0.0 0.0 0.0 0.0 0.0 0.0 0.0 0.0 0.0 0.0 0.0 0.0 0.0 0.0 0.0 0.0 0.0 0.0 0.0 0.0 0.0 0.0 0.0 0.0 0.0 0.0 0.0 0.0 0.0 0.0 0.0 0.0 0.0 0.0 0.0 0.0 0.0 0.0 0.0 0.0 0.0 0.0 0.0 0.0 0.0 0.0 0.0 0.0 0.0 0.0 9.1 10.9 10.1 13.0 11.1 9.5 12.6 12.9 11.9 7.9 5.8 0.0 0.0 0.0 0.0 0.0 0.0 4.4 3.3 0.8 0.0 0.0 0.0 0.0 0.0 0.0 0.0 0.0 0.0 0.0 0.0 0.0 0.0 0.0 0.0
0.0 0.0 0.0 0.0 0.0 0.0 0.0 0.0 0.0 0.0 0.0 0.0 0.0 0.0 0.0 0.0 0.0 0.0 0.0 0.0 0.0 0.0 0.0 0.0 0.0 0.0 5.6 0.0 0.0 0.0 0.0 0.0 0.0 0.0 0.0 0.0 0.0 0.0 0.0 0.0 0.0 0.0 0.0 0.0 0.0 0.0 0.0 0.0 0.0 0.0 0.0 11.5 12.1 12.4 12.5 14.1 13.8 13.0 11.5 12.5 11.5 11.6 12.2 11.0 4.7 0.0 0.0 0.0 1.3 0.0 0.0 0.3 0.0 0.0 0.0 0.0 0.0 0.0 0.0 0.0 0.0 0.0 0.0 0.0 0.0 0.0 0.0 0.0
0.0 0.0 0.0 0.0 0.0 0.0 0.0 0.0 0.0 0.0 0.0 0.0 0.0 0.0 0.0 0.0 0.0 0.0 0.0 0.0 0.0 0.0 0.0 0.0 0.0 0.0 0.0 0.0 0.0 0.1 0.0 0.0 0.0 0.0 0.0 0.0 0.0 0.0 0.0 0.0 0.0 0.0 0.0 0.1 0.0 0.0 0.0 0.0 0.1 12.0 11.4 8.8 9.4 11.6 13.6 13.9 11.8 11.0 12.4 12.6 12.0 12.0 9.8 10.4 9.2 6.6 1.7 0.0 1.0 0.0 1.2 0.0 1.0 4.3 0.0 0.0 0.0 0.0 0.0 0.0 0.0 0.0 0.0 0.0 0.0 0.0 0.0 0.0
0.0 0.0 0.0 0.0 0.0 0.0 0.0 0.0 0.0 0.0 0.0 0.0 0.0 0.0 0.0 0.0 0.0 0.0 0.0 0.0 0.0 0.0 0.0 0.0 0.0 6.4 7.0 0.0 0.0 0.0 0.0 0.0 0.0 0.0 0.0 0.0 0.0 0.0 0.0 0.0 0.0 0.0 0.7 1.0 0.7 0.4 0.2 0.4 1.3 11.5 12.5 12.2 11.8 7.8 10.0 9.0 10.1 11.3 12.0 12.0 11.4 12.4 12.1 10.6 4.1 0.0 0.0 4.1 5.5 4.3 4.5 1.3 0.0 0.0 0.0 0.0 0.0 0.0 0.0 0.0 0.0 0.0 0.0 0.0 0.0 0.0 0.0 0.0
0.0 0.0 0.0 0.0 0.0 0.0 0.0 0.0 0.0 0.0 0.0 0.0 0.0 0.0 0.0 0.0 0.0 0.0 0.0 0.0 0.0 0.0 0.0 0.0 1.5 0.7 0.0 0.9 0.5 0.0 0.0 0.0 0.0 0.0 0.0 0.0 0.0 0.0 0.0 0.0 0.4 0.9 1.6 10.1 8.2 0.7 0.4 12.9 13.1 12.1 11.3 9.6 7.2 5.5 4.3 9.8 12.5 12.1 12.1 12.3 13.0 12.1 10.9 10.8 9.3 5.6 0.0 4.4 5.1 3.1 2.5 2.3 2.0 0.0 0.0 0.0 0.0 0.0 0.0 0.0 0.0 0.0 0.0 0.0 0.0 0.0 0.0 0.0
0.0 0.0 0.0 0.0 0.0 0.0 0.0 0.0 0.0 0.0 0.0 0.0 0.0 0.0 4.5 9.0 9.7 8.6 7.7 2.0 0.0 0.0 0.0 0.0 1.9 3.8 2.5 0.0 0.0 0.0 2.5 2.0 0.0 0.0 0.0 0.0 0.0 0.0 1.1 1.2 1.7 10.1 10.1 2.9 9.1 0.8 0.9 13.4 11.6 9.7 8.4 8.0 6.5 6.0 7.2 9.1 10.8 11.8 13.2 14.1 13.5 13.0 13.7 10.6 7.8 4.5 4.9 5.0 13.0 11.2 6.5 5.1 4.2 2.8 0.3 0.0 0.0 0.0 0.0 0.0 0.0 0.0 0.0 0.0 0.0 0.0 0.0 0.0
0.0 0.0 0.0 0.0 0.0 0.0 0.0 0.0 0.0 0.0 0.0 0.0 0.0 0.6 1.6 1.2 0.2 0.0 3.7 8.5 1.4 0.0 0.0 0.0 1.3 3.6 1.3 0.5 0.0 0.0 0.0 4.2 1.9 1.5 0.0 0.0 0.0 1.7 1.2 1.7 11.9 11.9 10.7 9.6 8.1 11.6 11.3 12.6 8.7 9.0 6.8 7.3 7.2 7.1 8.9 9.5 10.3 11.6 12.6 13.0 14.3 13.7 12.9 10.1 9.9 5.6 4.3 5.1 10.5 11.4 11.7 10.1 8.4 5.9 2.3 3.2 1.1 0.0 0.0 0.0 0.0 0.0 0.0 0.0 0.0 0.0 0.0 0.0
0.0 0.0 0.0 0.0 0.0 0.0 0.0 0.0 0.0 0.0 0.0 0.0 0.6 1.1 1.4 0.0 0.0 0.0 1.1 10.2 9.3 0.0 0.0 1.4 2.4 2.4 1.0 0.0 0.0 0.0 5.8 4.5 10.3 1.5 0.0 0.0 1.5 1.5 1.8 7.9 11.3 12.0 12.3 10.3 13.4 14.4 14.0 10.0 4.8 0.8 1.7 8.3 9.8 10.3 10.6 10.8 10.6 12.7 13.4 14.0 14.7 12.7 12.7 14.7 13.7 10.4 8.5 7.8 10.9 11.7 12.1 12.0 11.5 9.3 4.9 0.0 0.0 0.0 0.0 0.0 0.0 0.0 0.0 0.0 0.0 0.0 0.0 0.0
0.0 0.0 0.0 0.0 0.0 0.0 0.0 0.0 0.0 0.0 0.0 0.2 0.5 0.8 0.0 0.0 0.0 2.2 3.7 12.1 10.4 4.8 1.7 2.4 3.0 2.1 1.3 1.9 0.0 0.0 4.4 3.5 2.2 1.5 0.0 0.0 2.7 2.1 2.7 3.7 12.2 12.5 12.7 11.9 11.8 12.4 11.6 8.0 0.0 6.2 7.0 8.0 10.3 10.8 11.8 12.5 13.4 11.8 11.5 12.6 12.6 12.4 14.6 11.5 13.4 11.1 14.0 12.2 11.4 10.5 12.2 10.1 12.4 8.9 7.9 3.7 0.0 0.0 0.0 0.0 0.0 0.0 0.0 0.0 0.0 0.0 0.0 0.0
0.0 0.0 0.0 0.0 0.0 0.0 0.0 0.0 0.1 0.0 0.0 0.0 0.0 0.0 0.0 0.0 0.0 2.1 10.1 12.3 8.6 11.1 0.0 2.0 0.0 1.5 0.0 0.0 0.0 3.0 4.2 3.0 1.4 0.9 0.0 0.0 1.8 2.5 2.5 2.2 3.2 13.0 12.4 12.0 12.0 12.7 12.0 5.6 0.2 10.3 11.5 9.7 10.5 12.3 11.6 11.6 14.1 13.0 12.0 9.9 8.6 11.5 13.9 14.1 13.1 11.0 15.0 14.9 11.4 8.6 15.0 14.4 12.8 12.6 12.4 6.1 10.3 4.3 0.0 0.0 0.0 0.0 0.0 0.0 0.0 0.0 0.0 0.0
0.0 0.0 0.0 0.0 0.0 0.0 0.0 0.0 1.6 0.0 0.2 0.0 0.0 0.0 0.0 0.0 0.0 0.0 10.5 13.5 12.8 11.9 1.5 10.1 0.0 0.6 0.0 1.4 0.0 3.0 1.8 9.1 1.7 0.0 0.0 0.0 0.0 1.7 2.0 9.5 2.4 13.4 12.1 12.4 12.4 12.4 10.8 0.5 4.5 7.6 9.5 11.6 12.1 11.8 11.0 10.2 13.6 14.2 13.7 9.8 9.3 11.3 14.2 14.1 14.1 13.6 15.9 15.7 13.1 9.5 15.0 19.0 13.6 12.8 12.2 11.8 12.1 10.4 7.1 8.1 0.0 0.0 0.0 0.0 0.0 0.0 0.0 0.0
0.0 0.0 0.0 0.0 0.0 0.0 0.0 6.1 0.0 0.0 2.2 1.2 0.0 0.0 0.0 0.0 0.0 0.0 8.9 14.6 13.6 12.1 11.8 0.7 1.5 0.5 0.0 1.7 2.2 1.3 12.9 12.8 0.0 0.0 0.0 0.0 0.0 0.0 9.2 12.1 10.5 2.3 2.1 13.1 13.8 14.4 11.5 9.4 8.5 8.3 8.8 11.5 12.6 12.9 11.3 10.3 13.8 14.5 13.9 12.4 11.4 12.4 13.6 14.8 13.2 12.9 15.8 13.1 13.4 14.1 13.2 16.0 15.8 14.1 12.3 12.0 11.5 10.9 10.9 7.7 5.7 1.0 0.0 0.0 0.0 0.0 0.0 0.0
0.0 0.0 0.0 0.0 0.0 0.0 0.0 0.0 0.5 3.2 2.6 0.0 0.0 0.0 0.0 0.0 0.0 0.8 15.9 21.4 20.0 0.0 7.8 0.0 2.2 0.0 0.0 2.8 0.0 1.7 0.9 1.4 10.3 1.3 0.0 0.0 0.0 2.3 2.8 12.9 10.8 11.4 8.7 12.3 16.1 13.9 10.8 12.9 10.1 11.3 11.2 11.8 12.3 8.2 12.2 7.6 11.3 14.4 12.7 11.9 10.7 11.3 12.3 13.3 13.6 14.7 15.8 15.8 16.9 16.1 15.1 16.6 17.0 14.8 12.9 12.3 11.6 10.6 10.0 6.6 3.6 0.0 0.0 0.0 0.0 0.0 0.0 0.0
0.0 0.0 0.0 0.0 0.0 0.0 0.0 0.0 2.3 3.4 0.0 0.0 0.0 0.0 0.0 0.0 0.2 7.2 16.9 22.7 13.8 12.7 0.0 7.1 0.0 0.5 3.7 2.8 4.5 4.1 4.4 3.6 11.8 1.9 0.0 0.0 0.0 3.4 12.7 10.3 12.5 12.8 3.4 10.8 12.9 13.9 12.4 10.1 10.7 7.1 10.9 12.4 8.3 12.3 9.8 7.0 11.8 12.2 12.5 12.6 12.6 13.5 13.9 14.2 15.5 15.2 16.1 17.1 21.4 16.2 15.5 16.8 16.9 15.1 13.8 12.9 12.3 11.0 9.7 5.0 2.6 0.0 0.0 0.0 0.0 0.0 0.0 0.0
0.0 0.0 0.0 0.0 0.0 0.0 1.1 0.0 2.3 0.0 0.0 0.0 0.0 0.0 0.0 0.0 7.2 16.9 17.6 23.0 13.7 13.1 0.0 0.4 1.2 12.2 5.3 12.3 12.6 6.1 12.3 5.1 3.8 4.3 5.2 4.4 3.8 1.6 4.2 4.7 5.0 13.0 13.5 13.5 13.6 12.1 15.4 3.3 4.0 11.4 11.8 7.0 9.1 12.3 9.9 7.7 7.6 1.6 11.8 13.4 15.4 16.0 16.3 16.1 16.5 16.4 16.9 19.6 17.8 14.8 15.6 16.6 21.7 16.0 14.2 12.9 12.5 6.6 1.4 5.8 9.7 0.0 0.9 0.0 0.0 0.0 0.0 0.0
0.0 0.0 0.0 0.0 0.0 0.0 0.1 3.6 1.6 0.0 0.0 0.0 0.0 0.9 0.4 8.4 17.4 18.0 23.6 15.2 13.9 13.7 1.4 9.8 13.3 4.5 13.0 14.0 14.3 12.7 14.6 6.3 5.8 5.7 13.7 5.8 5.7 5.7 5.4 12.7 6.1 16.3 16.8 16.4 14.4 13.5 14.3 11.4 12.0 12.5 2.6 1.7 0.0 9.4 3.7 3.3 10.2 7.6 15.7 16.5 16.8 17.3 17.2 17.4 17.5 17.3 19.4 21.8 16.9 14.1 15.8 16.6 20.8 16.9 15.1 6.1 8.6 6.3 1.0 0.9 5.2 9.3 3.8 1.9 0.0 0.0 0.0 0.0
0.0 0.0 0.0 0.0 0.0 0.0 3.8 2.9 0.0 0.0 0.0 0.0 0.0 2.5 8.5 17.7 18.6 17.9 15.9 0.0 14.5 14.1 13.9 14.1 14.0 14.4 14.4 13.1 15.2 15.4 15.1 15.7 7.0 14.8 14.1 14.6 15.4 14.9 13.5 15.8 15.7 16.7 17.6 16.9 16.1 16.1 15.3 14.1 11.4 11.8 3.1 2.5 11.8 12.5 13.6 14.3 11.6 12.5 16.8 15.0 17.5 25.5 18.6 24.2 18.9 23.4 21.9 21.2 16.8 16.5 16.6 17.7 18.4 13.4 12.4 8.9 7.1 5.5 4.6 1.5 4.2 7.0 5.1 3.7 2.2 1.1 0.0 0.0
0.0 0.0 0.0 0.0 0.0 0.8 0.0 0.0 0.0 0.0 0.0 0.0 2.9 11.7 18.2 19.5 23.3 16.7 15.1 15.2 15.0 14.5 14.7 0.7 15.4 15.6 16.0 16.1 16.0 16.1 16.3 16.4 13.8 15.6 13.7 16.0 16.1 14.3 12.6 12.8 14.9 12.6 17.1 16.6 16.5 17.1 17.4 16.5 13.3 11.3 11.5 2.9 8.3 13.8 16.9 16.7 14.3 14.9 14.6 17.0 17.9 25.4 26.1 26.1 25.7 26.0 24.9 18.6 16.7 16.6 17.1 18.6 17.7 12.8 6.1 7.3 2.8 1.9 0.0 0.0 0.0 2.0 3.3 3.2 2.9 2.3 1.7 1.0
0.0 0.0 0.0 0.0 0.0 0.0 0.0 0.0 0.0 0.0 0.0 0.0 12.0 11.8 19.7 20.1 18.3 15.7 15.2 15.7 15.6 14.0 13.0 15.4 15.7 16.8 16.9 15.2 16.9 17.0 17.3 16.5 16.8 15.5 13.5 17.0 16.5 16.7 16.4 12.8 15.2 16.8 17.2 17.4 17.5 17.7 18.5 17.8 16.1 14.0 16.2 4.0 8.6 6.8 8.2 11.8 13.0 13.5 12.2 13.8 16.8 17.6 25.3 25.5 25.2 25.2 24.5 20.3 17.2 17.7 18.8 24.9 16.9 14.5 11.2 2.5 0.0 0.0 0.0 0.0 0.0 1.2 2.4 3.1 3.6 3.5 3.0 2.6
0.0 0.0 0.0 0.0 0.0 0.0 0.0 0.0 0.0 0.0 0.5 3.6 12.0 18.1 20.7 19.2 17.2 16.2 16.5 16.7 17.0 14.9 12.6 7.1 17.2 17.4 17.7 17.7 17.8 18.0 14.5 18.4 15.7 17.6 15.8 16.9 17.7 17.6 17.4 16.5 13.4 13.7 18.0 18.9 18.7 18.1 18.7 17.4 16.4 11.6 9.0 9.3 10.7 4.2 2.9 13.0 13.9 15.3 16.6 17.2 17.3 16.6 16.3 19.3 18.2 18.5 24.9 24.8 24.7 19.1 19.0 17.4 15.2 10.6 13.0 12.4 0.0 0.0 0.0 0.5 2.4 3.7 4.5 4.7 5.1 5.0 3.7 2.9
0.0 0.0 0.0 3.8 1.6 0.0 0.0 0.0 0.0 0.0 2.0 7.7 15.0 18.3 19.1 17.4 17.1 17.6 18.0 14.2 13.4 15.9 15.2 12.4 17.9 18.8 18.9 18.8 18.8 19.0 6.4 15.2 18.9 17.0 19.1 17.4 15.5 18.4 15.6 16.4 14.9 13.0 16.0 17.4 18.8 18.4 18.8 18.6 17.2 13.8 6.0 12.4 7.8 5.3 7.6 5.9 17.3 16.1 14.4 18.2 14.5 9.7 16.0 16.6 17.4 17.8 18.0 18.8 26.0 18.3 18.3 16.7 14.1 9.9 13.2 12.1 12.2 11.9 8.7 3.9 5.5 5.8 6.0 6.1 6.0 5.3 4.0 3.3
0.6 1.2 7.0 4.5 2.0 0.0 0.0 0.0 0.0 0.0 2.8 10.4 15.5 19.1 15.4 17.3 15.0 16.9 10.6 13.2 13.1 14.4 17.2 19.0 20.4 18.4 20.1 20.0 19.9 20.0 19.1 14.0 19.8 19.1 19.9 19.2 19.7 17.9 18.6 16.3 7.9 13.7 12.0 12.0 16.6 17.6 18.7 18.9 18.0 14.5 14.2 12.6 5.9 4.7 9.0 6.1 11.3 16.5 18.2 13.8 13.8 16.4 18.1 17.7 25.2 18.5 26.8 24.8 26.5 17.2 17.9 17.1 15.3 21.4 13.1 13.4 12.6 13.0 11.6 9.6 6.0 7.3 6.9 6.6 6.5 5.7 4.4 3.5
3.3 6.1 3.1 4.6 1.0 0.0 0.0 0.0 0.0 1.7 7.2 12.7 16.6 14.3 13.4 19.1 10.4 13.5 7.6 7.9 13.4 13.6 19.2 19.2 20.7 15.3 21.3 20.3 19.9 20.1 20.4 17.9 20.2 19.2 20.6 18.0 20.4 15.0 16.4 16.6 14.9 12.9 12.2 6.7 14.4 17.8 15.9 19.7 17.3 16.8 12.9 13.2 7.5 10.6 13.6 10.8 3.9 10.2 15.1 13.3 15.2 18.9 19.2 18.7 19.0 24.2 27.2 27.2 26.6 17.5 17.9 17.1 13.9 15.0 14.0 13.4 13.5 13.5 13.1 11.5 10.9 10.3 7.2 7.3 7.3 6.5 5.4 4.2
6.6 8.6 13.4 4.0 0.0 0.0 0.0 0.0 0.0 4.8 11.9 15.3 16.4 17.0 12.2 12.2 7.0 8.1 8.2 8.3 8.5 13.1 15.6 14.7 16.8 15.5 13.1 17.3 16.9 20.0 19.1 18.0 15.8 18.8 17.8 16.6 17.9 13.5 13.6 13.4 16.4 9.1 10.2 9.9 14.8 16.8 18.5 20.1 20.4 18.3 14.0 14.7 16.6 14.7 18.6 16.6 11.7 14.9 12.3 14.5 15.0 17.9 18.3 18.5 19.0 18.7 18.6 24.5 26.8 26.2 18.3 23.4 14.1 11.8 14.1 13.1 12.3 12.2 12.9 12.1 11.3 8.9 7.0 7.5 7.5 6.8 6.0 4.4
8.4 12.4 13.2 0.3 0.0 0.0 0.0 0.0 4.6 11.8 14.0 17.5 16.2 14.6 10.4 15.1 10.2 9.0 9.0 7.8 12.3 12.1 14.2 13.9 13.0 15.5 14.1 15.1 14.6 17.2 16.0 16.0 16.5 16.5 15.7 16.3 14.7 9.9 14.1 4.8 13.9 12.6 10.2 11.1 13.8 12.8 17.4 18.4 21.5 20.6 18.9 16.5 19.8 16.6 17.6 14.7 17.9 17.5 17.2 19.7 18.1 18.9 18.6 18.7 18.8 18.4 18.3 27.0 22.3 26.6 25.9 17.7 15.9 10.7 12.0 10.7 10.5 11.1 10.1 10.8 9.3 8.5 7.2 7.5 7.2 6.8 5.9 4.2
4.6 12.4 12.4 0.0 0.0 0.0 0.0 5.7 14.2 15.3 15.1 13.1 12.3 14.4 13.8 15.3 11.9 11.0 9.1 9.0 11.9 8.6 13.3 14.7 14.9 17.0 15.4 16.6 16.7 13.5 16.9 15.9 17.8 18.7 18.2 18.0 15.2 19.3 13.9 14.8 14.0 15.0 11.7 13.9 13.9 13.6 19.7 18.9 21.5 20.0 20.6 20.4 18.6 14.3 13.4 13.5 13.2 14.7 15.3 17.2 15.8 17.2 19.2 23.8 23.6 19.0 18.3 18.5 26.9 26.0 24.1 16.8 15.2 12.1 5.6 7.9 6.9 8.4 7.9 8.1 8.6 7.6 8.2 7.8 7.5 6.8 5.2 3.7
12.3 15.2 12.7 0.0 0.0 0.0 5.9 15.2 15.4 13.3 15.6 17.3 17.3 14.0 15.4 6.1 12.8 12.5 11.6 9.9 12.6 14.3 12.3 14.1 14.0 15.5 15.9 16.2 15.1 15.8 16.4 17.4 16.1 17.0 16.9 18.1 15.2 15.4 14.4 11.0 12.6 12.8 15.1 18.0 17.3 14.6 17.1 21.5 21.2 20.5 18.7 17.0 15.2 13.9 14.5 14.6 14.4 15.4 15.4 16.4 14.0 15.6 16.5 19.6 23.4 19.4 18.6 18.7 17.9 17.7 25.5 17.3 14.1 15.5 14.6 12.0 7.8 7.6 5.1 5.9 9.1 8.5 8.5 7.9 7.7 6.4 4.5 3.5
12.8 14.7 2.1 0.4 0.0 1.8 12.5 16.1 13.9 15.5 16.9 14.5 10.8 12.3 9.3 12.4 13.3 12.5 13.8 12.8 14.8 11.8 14.4 15.1 16.0 16.7 15.1 15.3 15.8 15.9 15.3 18.0 16.1 17.6 16.2 16.0 15.8 13.0 9.5 10.1 12.0 13.2 12.9 15.4 13.5 12.7 9.6 21.2 22.0 21.8 18.9 18.1 15.5 13.8 15.6 18.8 15.0 15.4 16.6 17.2 17.0 17.7 16.2 17.3 18.9 18.7 18.9 19.3 18.3 18.5 25.8 18.1 15.4 14.3 14.5 14.1 5.4 5.8 6.4 7.1 8.9 10.4 9.7 8.5 7.7 5.5 4.0 3.7
12.5 13.1 11.5 1.5 0.0 2.5 13.9 19.1 19.6 16.5 15.3 13.8 13.6 14.3 11.1 13.5 14.1 15.2 14.5 13.3 15.2 16.4 16.0 16.2 15.5 13.7 17.0 14.2 16.1 18.1 15.0 21.2 15.2 16.3 17.5 15.4 16.6 10.9 11.8 11.7 11.9 15.1 14.1 15.6 17.0 15.0 21.5 20.2 19.4 21.9 22.9 22.6 22.0 20.0 18.2 17.4 18.4 21.3 19.9 17.9 17.9 16.9 16.8 19.7 19.6 19.3 20.0 19.5 18.2 19.0 24.8 18.0 14.6 13.6 14.4 13.8 12.6 11.9 11.6 8.9 9.9 10.7 10.0 8.5 6.5 4.5 4.2 4.4
13.1 11.3 11.9 8.1 4.1 7.7 17.5 14.7 15.7 16.7 15.8 16.2 16.1 17.1 16.0 15.2 13.2 14.5 14.5 15.8 13.5 14.6 15.8 16.8 14.8 15.1 16.2 14.4 16.9 15.9 15.5 17.4 20.0 14.8 15.7 15.7 16.4 12.1 13.7 13.6 12.9 15.3 13.2 12.4 13.1 13.5 20.2 20.2 22.0 24.7 26.2 27.3 27.6 26.9 25.4 21.6 19.9 18.9 21.0 18.8 18.1 17.4 17.9 17.4 20.5 20.9 22.5 19.8 18.2 19.2 19.6 18.0 15.7 14.9 14.5 14.2 13.3 13.2 9.9 10.7 10.0 9.4 8.9 7.4 5.5 4.5 4.5 4.5
14.0 19.5 13.3 14.9 13.3 13.8 12.7 9.6 13.7 15.9 17.7 17.2 19.7 17.1 16.6 18.4 15.2 13.8 14.4 15.0 12.7 13.9 13.9 14.9 14.2 14.2 16.6 16.7 18.4 18.4 18.3 15.4 18.0 19.3 18.0 19.0 16.4 16.0 15.0 15.0 14.4 14.3 13.5 10.0 11.8 13.9 19.6 17.5 19.4 20.4 22.4 23.6 21.7 21.4 19.4 17.6 21.0 21.1 21.1 17.9 17.2 19.2 16.4 15.6 18.2 20.4 21.7 20.4 19.6 19.6 19.0 18.1 17.3 15.7 15.7 14.5 13.4 13.8 13.6 13.0 10.2 9.2 8.1 6.3 4.8 4.6 4.5 4.5
16.1 17.0 17.4 18.5 13.7 12.7 16.2 15.7 15.6 14.8 18.2 16.3 21.3 17.5 20.5 18.1 17.0 17.2 12.4 19.3 14.4 14.8 16.3 16.1 17.4 18.3 18.5 18.6 19.6 19.7 18.1 19.1 16.8 18.7 18.8 18.7 17.4 16.7 15.5 15.6 15.6 15.1 11.8 12.7 12.2 16.4 19.4 21.3 19.6 19.7 19.9 19.7 18.6 19.1 17.5 17.4 21.6 20.9 20.7 20.1 18.1 17.6 18.6 19.3 20.0 21.2 16.6 20.2 23.3 20.2 19.1 18.9 17.0 16.1 15.8 15.2 14.4 13.8 12.8 12.4 10.4 9.3 7.8 6.0 5.1 5.2 5.2 5.1
19.0 14.4 13.7 14.0 18.2 20.1 18.5 17.2 15.3 17.4 17.2 17.4 20.3 18.1 20.4 20.5 20.4 21.2 16.3 15.5 15.4 15.4 20.4 21.3 18.1 20.0 19.4 20.5 20.6 23.1 20.5 21.1 20.7 22.3 20.1 20.0 19.7 18.1 18.2 16.0 19.8 14.4 13.4 15.0 12.9 16.8 20.7 22.3 19.2 19.4 20.4 18.8 18.1 18.4 17.5 18.7 20.1 20.0 20.2 20.5 20.8 19.6 19.8 20.0 19.0 17.7 19.6 20.6 21.2 17.1 18.5 18.0 15.5 15.2 14.7 14.9 13.8 12.5 12.4 10.1 9.7 8.9 8.4 7.9 7.5 7.6 7.4 6.6
14.0 16.9 14.3 16.7 20.6 17.0 16.0 16.2 16.3 17.6 19.2 18.3 19.5 18.9 21.5 21.1 22.0 19.6 20.4 20.7 18.2 20.5 18.7 23.5 21.1 19.9 18.9 18.5 20.3 22.3 20.8 24.1 23.4 20.0 20.9 20.4 20.7 20.0 21.0 18.8 16.2 15.1 15.7 16.9 16.4 16.8 20.3 22.7 19.9 19.9 21.0 19.8 19.3 18.9 18.5 20.2 20.1 20.7 21.8 20.4 19.3 19.8 20.6 20.0 21.4 20.8 18.8 20.6 20.0 20.7 19.6 18.7 15.0 15.2 14.8 13.9 8.9 9.2 9.4 8.7 7.8 7.3 7.1 7.0 6.9 6.7 6.5 6.2
17.4 17.7 17.6 15.0 14.7 16.4 17.3 17.5 17.6 19.4 21.3 17.4 21.6 20.8 21.0 21.0 22.1 20.0 19.4 21.2 24.8 21.2 17.3 21.1 20.2 19.2 19.0 19.1 19.6 22.1 21.1 20.4 20.9 22.6 19.2 20.2 20.7 20.0 20.7 19.0 19.6 16.7 16.3 17.9 17.0 17.2 18.8 22.0 17.2 20.4 22.7 22.2 20.4 19.0 18.6 19.1 19.9 21.5 20.7 20.4 19.1 20.3 20.1 19.3 18.9 19.4 19.3 19.8 18.4 18.5 19.4 18.8 15.4 13.9 13.8 11.4 10.2 8.8 8.4 7.4 6.4 6.2 5.7 5.4 5.4 5.0 4.6 4.8
12.6 12.6 13.3 17.7 19.4 16.8 16.7 17.7 20.7 19.8 21.1 20.4 20.7 19.7 19.4 19.4 20.7 18.9 20.6 17.9 19.9 21.5 21.1 21.8 19.7 20.4 20.6 21.3 21.1 21.6 19.9 20.5 20.1 19.6 18.3 18.9 22.5 18.4 21.9 21.0 18.2 20.9 18.4 19.3 18.7 18.9 18.0 21.6 19.2 21.3 23.7 23.5 21.2 20.7 19.6 19.2 19.3 20.6 21.0 21.0 21.0 20.6 21.8 19.3 19.8 17.1 19.5 21.2 19.4 19.4 20.9 19.3 14.7 14.5 12.2 12.6 11.9 10.8 12.7 9.8 7.5 6.7 6.3 6.0 6.2 6.0 5.5 5.3
13.2 13.1 13.4 17.5 20.9 15.3 19.3 18.3 18.4 20.8 22.8 18.7 18.6 19.5 19.9 20.4 18.8 18.9 22.8 17.4 17.2 16.9 18.2 19.8 20.8 22.2 22.4 21.7 21.9 20.1 17.9 17.1 17.3 16.9 16.8 16.5 16.0 16.9 16.9 17.2 17.0 19.2 20.5 20.0 18.5 20.4 20.2 21.8 22.3 22.4 25.7 24.8 22.1 21.6 21.5 20.6 21.5 24.0 22.8 20.4 19.6 19.4 18.4 17.6 17.5 15.9 16.4 15.5 19.1 21.7 20.7 15.1 14.2 13.1 14.0 13.9 13.3 13.9 12.2 11.3 9.2 8.1 7.7 7.2 7.0 7.0 7.1 6.7